[[{"header":{"parameterUnit":"m.s-1","parameterCategory":1,"la1":30.2991,"la2":30.254,"lo1":-89.0895,"lo2":-89.0444,"dy":0.0017,"dx":0.0017,"nx":28,"ny":28,"refTime":"2025-07-19T21:00:00:Z","depth":0,"parameterNumber":2,"parameterNumberName":"U-component_of_WINDS"},"data":[0,0,0,0,0,0,0,0,0,0,0,0,0,0,0,0,0,0,0,0,0,0,0,0,0,0,0,0,0,0,0,0,0,0,0,0,0,0,0,0,0,0,0,0,0,0,0,0,0,0,0,0,0,0,0,0,0,0,0.9063,0.9065,0,0.9218,0.922,0.9222,0.9304,0.9304,0.9304,0.9304,0.9466,0.947,0.9474,0,0,0,0,0,0,0,0,0,0,0,0,0,0.884,0.8843,0.9063,0.9065,0.9067,0.9218,0.922,0.9222,0.9304,0.9304,0.9304,0.9304,0.9464,0.9469,0.9474,0,0,0,0,0,0,0,0,0,0,0,0,0,0.896,0.8844,0.9062,0.9126,0.9133,0.9217,0.922,0.9223,0.9304,0.9304,0.9304,0.9304,0.9463,0.9469,0.9475,0.9509,0,0,0.9494,0.9497,0,0,0,0,0,0,0,0,0.8953,0.8968,0.9114,0.9121,0.913,0.9242,0.9201,0.9319,0.9304,0.9239,0.9304,0.9305,0.9391,0.9403,0.9432,0.9517,0.9524,0.9495,0.9499,0.9501,0.9503,0,0,0,0,0,0,0,0.8944,0.8962,0.9124,0.9116,0.9126,0.9147,0.9164,0.9223,0.9312,0.9245,0.9251,0.9268,0.9396,0.9426,0.9437,0.9526,0.9495,0.95,0.9504,0.9506,0.9648,0.9648,0,0,0,0,0,0,0.8926,0.8954,0.9119,0.9129,0.904,0.9151,0.917,0.9206,0.9312,0.9328,0.9268,0.9271,0.9415,0.9429,0.9443,0.949,0.9501,0.9507,0.9511,0.9648,0.9648,0.9648,0,0,0,0,0,0,0.8921,0.894,0.9113,0.9043,0.9067,0.9154,0.9194,0.9209,0.9239,0.9329,0.9346,0.9282,0.9416,0.9434,0.9492,0.9496,0.951,0.9516,0.9648,0.9648,0.9648,0.9584,0,0,0,0,0,0,0.8914,0.8937,0.8951,0.9043,0.9071,0.9159,0.9194,0.9211,0.9249,0.9256,0.9347,0.9363,0.9417,0.9482,0.9498,0.9505,0.952,0.9648,0.9648,0.9648,0.9586,0.9582,0.9578,0,0,0,0,0,0.8906,0.8927,0.8951,0.897,0.9089,0.9159,0.9175,0.9237,0.9249,0.9264,0.9322,0.936,0.9493,0.9488,0.9506,0.9515,0.9648,0.9648,0.9648,0.9588,0.9583,0.9578,0,0,0,0,0,0,0.8833,0.894,0.8968,0.902,0.908,0.9173,0.9193,0.9229,0.9287,0.9291,0.9366,0.9386,0.9437,0.9483,0.9474,0.9554,0.9574,0.9578,0.9523,0.9518,0.9514,0.9502,0.9526,0,0,0,0,0,0.8823,0.8871,0.8962,0.8999,0.9028,0.9105,0.9138,0.918,0.9246,0.9272,0.9334,0.9396,0.9453,0.9488,0.9545,0.9593,0.9614,0.9609,0.9605,0.9601,0.9603,0.9632,0.963,0.9647,0.9647,0.9647,0,0,0.8803,0.8868,0.8893,0.8986,0.9038,0.9085,0.9126,0.9175,0.9211,0.928,0.9338,0.9386,0.9461,0.9514,0.954,0.9553,0.9603,0.9601,0.9597,0.9602,0.9632,0.963,0.9628,0.9647,0.9647,0.9647,0,0,0.8791,0.8845,0.8881,0.8932,0.9009,0.906,0.9069,0.9157,0.9191,0.9251,0.9303,0.9348,0.9443,0.9494,0.9533,0.954,0.9577,0.9557,0.9536,0.9563,0.9562,0.9561,0.9563,0.9563,0.9559,0.9559,0.9559,0,0.8757,0.883,0.8896,0.8942,0.8981,0.9045,0.9082,0.9129,0.922,0.9247,0.9259,0.938,0.9435,0.9501,0.9503,0.9532,0.9544,0.9547,0.9556,0.9556,0.9557,0.956,0.956,0.9556,0.9556,0.9556,0.9557,0,0.8784,0.8835,0.8855,0.8941,0.8983,0.9025,0.9097,0.9132,0.9171,0.9221,0.9281,0.9349,0.9421,0.944,0.9479,0.9511,0.9517,0.9542,0.9564,0.9551,0.9555,0.9557,0.9551,0.9552,0.9553,0.9554,0,0,0.873,0.8852,0.8858,0.8898,0.8988,0.9029,0.9074,0.9143,0.9171,0.9233,0.9272,0.9352,0.9375,0.9419,0.9464,0.9488,0.9489,0.9511,0.9514,0.9504,0.9529,0.9509,0.9509,0.9515,0.9515,0.9516,0.9523,0,0.873,0.8813,0.8873,0.8933,0.898,0.9041,0.9081,0.914,0.9188,0.9236,0.929,0.9345,0.9372,0.9399,0.9425,0.9483,0.9495,0.9484,0.9553,0.9554,0.9531,0.9512,0.9491,0.9494,0.9525,0.9525,0.9526,0,0.8741,0.88,0.8864,0.8949,0.8971,0.9005,0.9073,0.9118,0.9188,0.9221,0.9269,0.9316,0.9367,0.9384,0.9456,0.9446,0.9478,0.9511,0.9513,0.9521,0.9538,0.9519,0.9497,0.9497,0.9529,0.9529,0.9528,0,0.8694,0.879,0.884,0.8873,0.8973,0.8996,0.9039,0.9108,0.9146,0.9206,0.9232,0.9297,0.9333,0.9383,0.9446,0.9453,0.9511,0.9533,0.954,0.9538,0.9549,0.9547,0.9531,0.957,0.957,0.957,0.957,0,0.8688,0.8724,0.8821,0.8851,0.8895,0.8964,0.9005,0.9054,0.9115,0.9157,0.9215,0.9253,0.9334,0.9383,0.9433,0.9484,0.95,0.9529,0.9542,0.9523,0.9519,0.9545,0.9546,0.957,0.957,0.957,0.957,0,0.8642,0.8708,0.8767,0.8858,0.8881,0.8909,0.8987,0.902,0.9071,0.9124,0.914,0.9221,0.9281,0.9349,0.9432,0.9466,0.9513,0.9532,0.9489,0.9496,0.9499,0.9497,0.9498,0.9501,0.9538,0.9538,0.9537,0,0.8633,0.8663,0.8756,0.8788,0.8829,0.888,0.8919,0.8989,0.9027,0.9108,0.9131,0.9196,0.9251,0.9344,0.941,0.9474,0.9495,0.9491,0.9505,0.9485,0.9494,0.9491,0.9494,0.9486,0.9485,0.9485,0.9484,0,0.861,0.8641,0.8694,0.8759,0.8803,0.8858,0.8915,0.8938,0.902,0.906,0.9121,0.9164,0.9248,0.9311,0.9383,0.9429,0.947,0.9479,0.9484,0.9465,0.9439,0.9452,0.9477,0.9479,0.9479,0.948,0.948,0.948,0.8582,0.8611,0.8681,0.8739,0.8789,0.8841,0.8876,0.8932,0.8984,0.9058,0.9096,0.9157,0.9227,0.9328,0.9372,0.9421,0.9435,0.9442,0.9443,0.9444,0.9438,0.9431,0.9435,0.9435,0.9435,0.9435,0.9435,0,0.8561,0.8609,0.8661,0.8739,0.8784,0.8819,0.8884,0.892,0.8972,0.9034,0.9086,0.9157,0.9219,0.929,0.9357,0.9382,0.9403,0.9397,0.9396,0.9406,0.9423,0.9411,0.938,0.938,0.938,0.938,0.938,0.938,0.8555,0.8605,0.8645,0.8722,0.8771,0.883,0.8864,0.8913,0.8962,0.9038,0.9089,0.9135,0.9201,0.9273,0.9331,0.935,0.9372,0.936,0.9385,0.94,0.9404,0.9409,0.9399,0.9365,0.9365,0.9364,0.9364,0.9364]},{"header":{"parameterUnit":"m.s-1","parameterCategory":1,"la1":30.2991,"la2":30.254,"lo1":-89.0895,"lo2":-89.0444,"dy":0.0017,"dx":0.0017,"nx":28,"ny":28,"refTime":"2025-07-19T21:00:00:Z","depth":0,"parameterNumber":3,"parameterNumberName":"V-component_of_WINDS"},"data":[0,0,0,0,0,0,0,0,0,0,0,0,0,0,0,0,0,0,0,0,0,0,0,0,0,0,0,0,0,0,0,0,0,0,0,0,0,0,0,0,0,0,0,0,0,0,0,0,0,0,0,0,0,0,0,0,0,0,4.3771,4.377,0,4.3709,4.3708,4.3708,4.3682,4.3683,4.3683,4.3683,4.3612,4.361,4.3608,0,0,0,0,0,0,0,0,0,0,0,0,0,4.386,4.3859,4.3771,4.377,4.3769,4.3709,4.3708,4.3707,4.3682,4.3683,4.3683,4.3683,4.3612,4.361,4.3608,0,0,0,0,0,0,0,0,0,0,0,0,0,4.3812,4.3858,4.3771,4.375,4.3747,4.3709,4.3708,4.3707,4.3682,4.3683,4.3683,4.3683,4.3613,4.361,4.3607,4.3583,0,0,4.3598,4.3596,0,0,0,0,0,0,0,0,4.3815,4.3809,4.3754,4.3751,4.3748,4.3704,4.3714,4.3665,4.3682,4.3707,4.3683,4.3683,4.3642,4.3636,4.3624,4.358,4.3577,4.3598,4.3596,4.3594,4.3594,0,0,0,0,0,0,0,4.3818,4.3811,4.3746,4.3753,4.375,4.3741,4.3734,4.3704,4.3673,4.3705,4.3703,4.3696,4.364,4.3627,4.3622,4.3576,4.3598,4.3595,4.3593,4.3592,4.3508,4.3508,0,0,0,0,0,0,4.3826,4.3814,4.3748,4.3744,4.3783,4.3739,4.3732,4.3718,4.3674,4.3667,4.3696,4.3695,4.3632,4.3626,4.3619,4.3588,4.3594,4.3592,4.359,4.3509,4.3508,4.3508,0,0,0,0,0,0,4.3828,4.382,4.3751,4.3779,4.3769,4.3737,4.3722,4.3716,4.3703,4.3667,4.3661,4.3689,4.3632,4.3624,4.3593,4.3586,4.359,4.3587,4.3509,4.3509,4.3508,4.3526,0,0,0,0,0,0,4.3831,4.3821,4.3814,4.3779,4.3768,4.3727,4.3721,4.3715,4.3699,4.3697,4.3659,4.3652,4.3632,4.3598,4.359,4.3581,4.3585,4.351,4.3509,4.3508,4.3526,4.3527,4.3527,0,0,0,0,0,4.3834,4.3819,4.3813,4.3805,4.3758,4.3727,4.3721,4.3699,4.3698,4.3689,4.3666,4.3654,4.3588,4.3595,4.3586,4.3576,4.351,4.3509,4.3508,4.3526,4.3527,4.3527,0,0,0,0,0,0,4.3851,4.3815,4.3807,4.3782,4.3758,4.3723,4.3711,4.37,4.3674,4.3674,4.3646,4.3637,4.3608,4.3589,4.3597,4.355,4.3548,4.3545,4.3564,4.3564,4.3565,4.357,4.3582,0,0,0,0,0,4.3853,4.3833,4.3801,4.3781,4.377,4.3743,4.3729,4.3714,4.3688,4.3677,4.3651,4.3624,4.3597,4.3579,4.3553,4.3523,4.3514,4.3512,4.3513,4.3513,4.3511,4.3493,4.3492,4.3505,4.3505,4.3505,0,0,4.3855,4.3832,4.3821,4.3785,4.3765,4.3743,4.3734,4.3712,4.3695,4.3672,4.3643,4.3623,4.359,4.356,4.3545,4.3543,4.3505,4.3512,4.3513,4.351,4.3492,4.3491,4.349,4.3505,4.3505,4.3505,0,0,4.3847,4.3828,4.381,4.3791,4.3762,4.3744,4.3739,4.3706,4.3693,4.3663,4.3646,4.3624,4.3578,4.3556,4.3538,4.3522,4.3509,4.3514,4.3515,4.3498,4.3497,4.3496,4.3489,4.3488,4.3512,4.3512,4.3512,0,4.3852,4.3821,4.3801,4.378,4.3764,4.3746,4.3726,4.3707,4.3669,4.3658,4.3656,4.3599,4.3575,4.354,4.3536,4.3523,4.3515,4.3518,4.3499,4.3498,4.3496,4.349,4.3488,4.3513,4.3512,4.3512,4.3512,0,4.3829,4.3807,4.3796,4.3763,4.3745,4.3725,4.37,4.3684,4.3671,4.3652,4.3621,4.3593,4.356,4.355,4.3536,4.3512,4.3512,4.3505,4.3502,4.3496,4.349,4.3487,4.3514,4.3513,4.3513,4.3513,0,0,4.383,4.3788,4.3784,4.3769,4.3735,4.3717,4.3694,4.3665,4.3652,4.3626,4.3606,4.3568,4.3562,4.3542,4.3525,4.351,4.3499,4.3505,4.3504,4.3505,4.3469,4.3475,4.3472,4.349,4.349,4.3489,4.3472,0,4.3818,4.378,4.3762,4.3731,4.371,4.3693,4.3673,4.3649,4.3631,4.3609,4.3587,4.3561,4.3555,4.3543,4.3528,4.3504,4.3491,4.3505,4.3469,4.3468,4.3478,4.3469,4.3475,4.346,4.3469,4.3469,4.3469,0,4.3798,4.3776,4.3744,4.3713,4.3704,4.3687,4.3658,4.3638,4.361,4.3597,4.3576,4.356,4.3533,4.3532,4.3494,4.3504,4.3488,4.3474,4.3473,4.3468,4.3468,4.3464,4.3455,4.3452,4.3465,4.3465,4.3465,0,4.3802,4.3764,4.374,4.3727,4.3691,4.3679,4.3663,4.3635,4.3619,4.3592,4.3581,4.3551,4.3535,4.3511,4.3486,4.3488,4.3451,4.3448,4.3438,4.3439,4.343,4.3431,4.3418,4.3421,4.3421,4.3421,4.3421,0,4.379,4.3771,4.3741,4.3727,4.3704,4.3682,4.366,4.3642,4.3617,4.3597,4.3578,4.3559,4.3528,4.3504,4.3485,4.3456,4.3448,4.3436,4.3431,4.3438,4.3439,4.3427,4.3427,4.342,4.342,4.3421,4.3421,0,4.3791,4.377,4.3743,4.3711,4.3703,4.3688,4.3659,4.3643,4.3624,4.3599,4.3591,4.3561,4.3532,4.3505,4.3466,4.3452,4.3423,4.3417,4.3434,4.3431,4.3423,4.3424,4.3401,4.3396,4.3402,4.3402,4.3402,0,4.3785,4.377,4.3737,4.3724,4.3709,4.3687,4.3671,4.3648,4.3631,4.3598,4.3585,4.3555,4.353,4.3484,4.3457,4.3426,4.3419,4.3413,4.3414,4.3421,4.3418,4.3419,4.3417,4.3413,4.3413,4.3413,4.3413,0,4.3775,4.3766,4.3745,4.372,4.3701,4.368,4.3657,4.3646,4.3619,4.36,4.3572,4.3553,4.3514,4.3484,4.3451,4.3431,4.3417,4.3413,4.3409,4.3416,4.3426,4.342,4.3434,4.3414,4.3414,4.3414,4.3414,4.3414,4.3772,4.3758,4.3734,4.371,4.3691,4.3671,4.3655,4.3635,4.3612,4.358,4.3567,4.3538,4.3508,4.3463,4.3443,4.3418,4.3415,4.341,4.3408,4.3407,4.3408,4.3431,4.3412,4.3412,4.3412,4.3412,4.3412,0,4.3762,4.3745,4.3724,4.3695,4.3676,4.3667,4.3642,4.3626,4.3601,4.3577,4.3553,4.352,4.3491,4.3462,4.3431,4.3416,4.3409,4.3409,4.3409,4.3405,4.3413,4.342,4.3415,4.3415,4.3415,4.3415,4.3415,4.3415,4.3754,4.3731,4.3718,4.3685,4.3667,4.3641,4.3627,4.3608,4.3588,4.3553,4.353,4.3512,4.3485,4.3452,4.3424,4.3416,4.3404,4.3406,4.3396,4.3404,4.3404,4.3404,4.341,4.3404,4.3404,4.339,4.339,4.339]}]]